Temp
9 9 8 7 7 8 8 9 9 9 9 10 9 9 9 9 9 9 10 10 11 11 12 13 12 13 14 15 16 18 16 17 18 19 21 23 22 23 22 22 22 23 23 22 22
9 8 8 7 7 7 8 8 8 8 8 9 9 9 9 9 8 8 11 11 11 11 11 11 13 14 14 16 16 17 16 17 20 21 21 23 23 22 22 22 22 23 24 23 23
8 8 8 7 7 7 7 8 8 8 8 8 8 9 9 9 8 9 11 11 11 11 11 10 12 13 14 15 16 17 16 19 20 21 22 22 21 21 21 20 22 22 22 22 22
8 8 8 7 7 7 7 7 7 7 7 7 8 8 8 8 10 10 11 10 10 9 10 10 12 13 14 15 16 17 18 19 19 20 22 20 20 20 21 21 21 21 22 21 22
8 8 8 8 7 7 7 7 7 7 7 7 7 7 7 7 9 9 10 10 10 9 9 10 12 13 13 16 16 16 17 19 20 20 20 21 20 19 20 20 20 21 21 22 22
7 8 8 7 7 7 7 7 7 6 6 6 7 7 6 8 9 9 9 10 10 10 10 10 12 13 14 15 15 17 17 18 19 20 20 20 20 20 20 20 21 21 21 22 22
7 7 7 7 7 6 6 7 6 6 6 6 6 6 6 7 9 9 9 10 9 10 11 11 12 12 14 14 15 16 15 17 17 19 19 20 18 18 20 20 21 21 22 22 22
7 7 7 6 6 6 6 6 6 6 6 5 6 5 6 7 9 8 8 9 9 9 10 11 11 12 12 11 12 13 15 14 17 18 19 19 17 19 21 21 21 21 22 21 20
7 6 6 6 6 6 6 6 6 6 5 5 5 5 7 8 7 8 8 9 9 10 9 10 10 10 11 11 10 13 13 14 15 18 19 18 17 19 20 21 22 22 22 21 19
7 7 6 6 6 6 5 6 6 6 6 5 5 6 7 8 8 7 8 8 9 10 10 10 10 9 10 10 10 12 13 14 14 17 18 17 18 19 21 21 21 22 22 21 19
7 7 6 6 6 6 5 5 5 5 5 6 7 8 9 9 8 8 8 8 9 9 9 10 9 8 9 10 11 13 14 14 16 19 17 18 19 19 20 20 21 21 22 21 19
7 7 6 6 6 5 5 4 5 5 5 5 7 7 8 8 9 8 8 8 8 8 9 9 8 10 11 11 11 11 12 14 16 18 18 18 18 19 19 20 21 21 22 21 17
7 7 6 6 5 5 5 5 6 5 4 5 6 6 7 7 8 9 8 8 9 8 9 8 9 10 11 11 11 11 11 13 13 17 19 17 17 17 19 21 22 22 22 21 18
7 7 6 5 5 5 4 5 5 5 4 5 5 5 6 5 5 8 9 9 9 9 9 9 10 11 10 10 11 10 13 12 14 12 14 16 14 17 18 19 19 21 22 18 17
7 6 6 6 6 5 6 5 5 5 7 7 5 5 5 5 7 7 7 7 8 9 10 7 9 9 8 9 9 10 13 12 12 12 14 15 15 17 19 18 19 17 20 18 17
7 6 5 5 5 5 5 5 5 5 7 6 5 5 6 5 6 6 7 7 8 9 10 9 10 9 10 9 9 10 11 10 11 13 13 15 15 16 18 19 18 18 19 18 16
7 6 6 5 5 5 4 4 4 6 8 6 6 6 6 6 5 5 6 7 7 6 6 8 6 8 8 8 9 10 10 10 12 12 13 17 16 17 19 19 20 18 18 17 16
7 6 6 5 5 5 4 4 5 10 8 6 5 5 5 6 6 5 6 7 8 7 6 7 7 7 8 6 9 10 7 10 12 12 14 17 16 17 18 19 20 19 18 16 15
6 7 6 6 4 5 4 4 7 7 6 6 5 6 6 6 8 7 8 6 7 8 6 7 7 9 10 8 9 10 7 10 14 17 16 15 18 18 17 17 16 17 16 15 15
6 7 6 6 4 5 4 6 6 7 6 6 6 6 7 8 7 9 9 10 9 10 9 6 7 9 9 9 9 10 11 11 14 16 15 15 16 16 16 15 16 15 15 15 14
6 6 6 6 5 4 4 5 5 6 6 6 6 7 10 9 7 9 9 10 11 10 7 5 5 8 8 10 9 9 10 12 15 16 15 15 16 17 16 16 15 15 16 15 14
6 6 6 6 5 5 5 5 5 6 6 6 6 7 9 11 9 9 10 11 11 11 7 6 6 8 8 9 11 10 13 14 15 15 15 15 15 17 16 17 15 16 16 15 14
5 6 6 6 6 5 5 4 5 6 7 6 6 8 12 12 10 10 11 13 12 10 8 6 6 9 9 9 10 11 12 13 13 15 15 15 14 16 14 15 18 17 16 15 14
6 6 5 5 5 6 5 4 5 5 6 7 8 11 12 12 12 11 11 13 13 12 9 9 10 8 10 13 11 12 12 13 14 14 16 16 15 16 15 14 15 17 17 15 14
6 7 6 5 5 6 5 5 5 6 7 8 9 10 11 12 12 11 11 12 12 12 10 8 10 9 9 14 14 14 13 14 15 15 15 17 17 16 15 14 15 17 16 15 14
5 6 6 8 7 6 6 6 5 7 8 9 8 11 12 12 13 12 12 12 12 12 12 9 11 13 15 15 14 14 14 14 15 15 15 15 16 19 17 18 16 16 16 14 14
6 7 7 9 9 7 8 6 7 6 7 8 10 9 11 13 14 14 14 14 12 13 12 12 12 13 13 15 15 14 14 15 15 15 16 15 16 18 16 16 16 16 16 15 14
Height
1485 1485 1485 1486 1486 1486 1485 1485 1486 1487 1488 1488 1489 1491 1492 1493 1494 1495 1495 1497 1496 1496 1497 1497 1498 1500 1502 1502 1503 1502 1504 1500 1496 1496 1489 1483 1484 1486 1487 1489 1489 1488 1486 1488 1489
1485 1484 1484 1484 1484 1484 1483 1483 1484 1485 1486 1486 1487 1488 1489 1491 1492 1491 1492 1493 1494 1495 1496 1497 1497 1497 1498 1497 1498 1496 1498 1492 1486 1485 1484 1482 1483 1485 1487 1487 1486 1485 1485 1486 1487
1483 1483 1483 1482 1482 1482 1482 1482 1482 1483 1484 1484 1485 1486 1487 1489 1492 1485 1487 1487 1490 1492 1494 1496 1496 1496 1493 1494 1493 1492 1489 1487 1485 1483 1481 1480 1482 1484 1486 1486 1485 1484 1484 1485 1485
1482 1481 1481 1480 1480 1480 1480 1480 1480 1481 1482 1482 1483 1484 1485 1487 1492 1483 1484 1484 1485 1489 1492 1494 1495 1495 1492 1488 1488 1487 1484 1484 1483 1481 1479 1480 1482 1484 1486 1484 1483 1483 1482 1482 1483
1479 1479 1478 1478 1478 1479 1478 1478 1478 1480 1481 1482 1482 1483 1483 1484 1482 1483 1484 1483 1483 1484 1488 1492 1493 1493 1490 1486 1487 1482 1481 1480 1480 1479 1477 1478 1478 1482 1482 1482 1481 1480 1480 1479 1480
1476 1476 1476 1476 1476 1477 1477 1476 1477 1479 1479 1480 1480 1481 1481 1480 1478 1482 1483 1484 1485 1487 1488 1490 1490 1490 1488 1485 1483 1480 1480 1478 1476 1474 1475 1476 1475 1477 1477 1478 1476 1477 1475 1475 1475
1472 1473 1474 1474 1475 1475 1475 1475 1475 1477 1478 1478 1478 1479 1479 1474 1475 1478 1480 1482 1483 1486 1486 1488 1488 1489 1486 1485 1481 1477 1480 1475 1471 1469 1470 1473 1472 1470 1471 1473 1470 1471 1471 1470 1470
1468 1470 1470 1472 1472 1473 1473 1473 1473 1475 1476 1477 1477 1478 1472 1469 1471 1474 1477 1478 1479 1481 1484 1485 1486 1486 1486 1487 1481 1479 1475 1476 1461 1465 1465 1470 1471 1465 1466 1464 1463 1465 1466 1467 1466
1464 1467 1468 1469 1470 1471 1471 1471 1471 1472 1474 1475 1477 1477 1470 1463 1465 1468 1474 1476 1478 1479 1481 1484 1486 1486 1487 1489 1489 1475 1472 1465 1466 1461 1461 1461 1466 1459 1461 1458 1459 1460 1462 1462 1464
1461 1462 1464 1465 1467 1468 1468 1469 1468 1469 1471 1474 1475 1478 1465 1459 1461 1464 1468 1473 1476 1478 1480 1482 1484 1484 1482 1483 1475 1469 1468 1462 1460 1457 1459 1458 1456 1455 1453 1452 1455 1456 1458 1458 1461
1456 1458 1460 1462 1463 1465 1466 1468 1469 1468 1466 1463 1462 1460 1458 1456 1459 1461 1464 1469 1473 1476 1477 1477 1480 1469 1464 1466 1466 1464 1462 1461 1453 1448 1455 1451 1449 1447 1449 1450 1450 1452 1453 1454 1457
1453 1453 1456 1458 1460 1462 1463 1464 1463 1463 1460 1457 1457 1457 1455 1459 1458 1459 1463 1466 1468 1468 1472 1475 1466 1453 1465 1468 1471 1470 1468 1460 1450 1445 1446 1446 1443 1441 1442 1443 1443 1445 1447 1450 1452
1448 1449 1452 1454 1457 1458 1458 1459 1460 1461 1457 1448 1447 1448 1451 1454 1452 1453 1457 1459 1459 1462 1462 1463 1448 1466 1464 1466 1469 1466 1469 1461 1463 1445 1437 1442 1445 1440 1436 1434 1435 1438 1441 1443 1447
1443 1445 1448 1450 1455 1454 1455 1456 1457 1458 1454 1443 1443 1440 1444 1447 1448 1448 1450 1455 1455 1452 1458 1458 1454 1457 1460 1461 1463 1463 1457 1461 1455 1463 1458 1442 1459 1435 1426 1427 1428 1431 1435 1439 1445
1438 1440 1443 1445 1448 1451 1453 1453 1455 1458 1447 1438 1439 1438 1437 1441 1442 1440 1443 1449 1446 1447 1450 1450 1449 1452 1457 1456 1462 1453 1456 1459 1455 1456 1445 1441 1452 1429 1414 1419 1423 1427 1431 1436 1443
1432 1435 1438 1442 1444 1447 1449 1453 1456 1461 1441 1432 1435 1437 1438 1439 1439 1437 1439 1444 1444 1445 1442 1444 1448 1448 1444 1448 1454 1460 1458 1460 1450 1435 1448 1436 1439 1427 1413 1410 1416 1422 1428 1434 1442
1426 1429 1432 1435 1438 1442 1447 1453 1458 1445 1428 1431 1431 1433 1433 1434 1436 1438 1436 1438 1441 1449 1447 1444 1445 1444 1446 1444 1445 1452 1452 1442 1440 1440 1438 1419 1432 1419 1401 1398 1405 1415 1424 1433 1441
1420 1424 1426 1429 1433 1438 1444 1453 1446 1415 1421 1429 1430 1432 1431 1431 1430 1434 1433 1435 1437 1439 1442 1438 1434 1433 1434 1440 1436 1430 1447 1434 1427 1436 1427 1407 1425 1414 1400 1402 1406 1413 1423 1432 1440
1415 1418 1419 1423 1428 1433 1439 1442 1425 1419 1424 1426 1429 1427 1426 1426 1423 1427 1428 1431 1431 1431 1440 1432 1426 1415 1415 1424 1428 1423 1439 1429 1411 1395 1414 1416 1404 1404 1403 1407 1409 1415 1423 1431 1438
1409 1411 1413 1418 1422 1428 1432 1423 1420 1419 1421 1423 1420 1420 1414 1417 1423 1419 1420 1413 1418 1422 1429 1436 1428 1410 1413 1419 1426 1419 1423 1419 1407 1407 1416 1412 1411 1409 1408 1411 1411 1416 1422 1430 1436
1404 1406 1408 1412 1417 1424 1420 1418 1416 1417 1419 1421 1417 1412 1404 1408 1414 1413 1411 1406 1404 1412 1424 1436 1441 1416 1412 1408 1412 1416 1415 1409 1390 1386 1402 1416 1413 1392 1398 1403 1409 1412 1418 1426 1433
1398 1402 1404 1408 1415 1414 1412 1412 1414 1411 1413 1415 1414 1409 1400 1397 1407 1409 1406 1398 1399 1406 1421 1429 1430 1415 1408 1400 1402 1406 1399 1392 1391 1397 1396 1399 1415 1394 1396 1400 1404 1410 1416 1424 1432
1393 1399 1402 1404 1404 1407 1408 1410 1409 1407 1406 1408 1406 1401 1386 1389 1403 1402 1400 1391 1398 1406 1412 1422 1421 1403 1407 1408 1402 1406 1402 1395 1394 1390 1400 1404 1417 1396 1400 1403 1404 1408 1415 1422 1430
1390 1393 1398 1399 1399 1400 1404 1405 1404 1402 1403 1400 1397 1390 1384 1385 1390 1398 1395 1389 1393 1398 1404 1409 1401 1407 1399 1386 1395 1400 1400 1397 1399 1404 1397 1397 1407 1403 1404 1404 1405 1409 1415 1420 1427
1382 1385 1387 1392 1396 1396 1399 1398 1396 1397 1392 1392 1389 1387 1382 1385 1388 1389 1396 1391 1390 1392 1402 1412 1399 1399 1396 1378 1379 1386 1394 1396 1395 1396 1402 1393 1397 1398 1398 1400 1403 1408 1413 1419 1425
1376 1381 1382 1383 1386 1391 1392 1390 1392 1390 1387 1385 1387 1378 1379 1379 1382 1385 1388 1392 1391 1391 1397 1405 1396 1382 1378 1378 1381 1389 1389 1390 1391 1394 1396 1396 1399 1386 1389 1396 1401 1407 1412 1417 1422
1372 1376 1378 1376 1376 1381 1379 1382 1384 1387 1383 1382 1378 1382 1378 1374 1377 1376 1377 1382 1385 1387 1394 1398 1395 1384 1388 1378 1381 1392 1385 1385 1387 1389 1391 1400 1393 1388 1393 1396 1400 1405 1411 1416 1422
Wind_Speed
12 11 11 12 11 10 11 11 12 12 14 13 18 14 13 13 13 15 14 8 9 13 14 11 7 11 16 19 17 12 6 11 15 14 14 11 3 7 2 8 12 15 13 3 4
12 11 11 12 11 9 9 9 11 13 14 15 13 15 15 14 14 17 19 15 19 16 12 8 9 11 20 18 17 13 8 15 11 12 11 12 5 6 9 11 16 14 14 9 4
12 11 11 11 10 8 8 8 9 11 13 15 16 15 12 10 12 20 16 20 18 16 13 10 11 12 14 24 24 22 17 12 20 26 23 8 12 12 11 8 13 16 16 10 11
13 12 11 9 8 7 7 7 7 9 12 12 12 13 12 8 7 3 8 16 19 18 15 11 13 13 7 16 27 19 26 24 25 27 14 5 12 15 20 17 17 21 17 18 17
14 13 11 9 7 8 8 7 6 7 10 11 9 11 11 10 20 5 5 5 6 10 18 15 16 15 14 8 18 21 17 27 25 27 28 15 11 16 21 22 22 22 23 23 20
15 14 13 10 8 7 8 7 8 8 8 10 11 10 12 16 12 15 11 11 0 2 11 17 16 17 21 19 18 10 25 25 28 25 24 18 17 21 22 19 22 22 27 20 18
16 15 14 11 10 8 9 9 9 9 9 10 12 12 13 20 5 10 14 19 18 13 10 12 18 20 10 15 18 23 19 15 26 25 17 20 19 18 25 24 30 26 24 22 14
15 14 14 13 12 10 9 10 10 10 11 11 10 8 10 14 19 15 8 12 15 16 16 14 11 18 23 13 14 7 13 16 19 12 22 18 18 16 24 28 32 25 11 4 5
15 15 13 14 14 12 12 11 12 11 12 11 8 8 11 8 23 22 20 14 9 8 13 14 10 8 11 7 7 10 12 23 14 18 14 18 19 15 29 31 11 13 15 13 10
14 17 16 14 14 13 12 11 10 12 13 7 10 6 16 14 11 16 20 24 17 10 7 14 11 5 7 10 16 13 14 15 16 15 17 20 17 13 24 13 16 19 15 17 13
13 16 16 16 14 14 14 11 5 5 17 14 11 12 1 7 8 12 16 18 20 21 12 16 10 16 22 22 19 16 18 15 17 15 21 21 22 12 16 22 18 20 13 17 18
13 13 16 15 13 14 14 10 10 4 9 30 26 22 24 9 12 15 14 19 19 17 15 13 21 25 14 15 18 20 22 21 11 20 19 21 19 13 11 19 23 23 20 18 21
14 11 14 12 14 16 18 20 18 19 7 10 33 35 26 17 18 17 22 26 16 17 19 18 19 17 17 19 20 24 20 17 15 20 7 7 10 11 11 20 25 22 25 24 26
14 12 12 13 13 16 15 14 16 16 5 5 7 8 23 10 7 26 22 25 12 19 17 15 20 19 17 24 20 23 23 22 20 16 9 10 4 16 23 17 13 17 17 29 28
15 14 15 17 6 8 5 3 6 8 5 8 6 3 5 13 3 11 31 26 18 16 11 9 10 14 18 22 16 20 13 23 24 15 6 6 4 9 12 18 14 10 20 31 29
17 15 17 17 20 12 8 1 7 2 7 5 6 7 8 11 7 6 27 28 18 16 15 12 11 12 20 19 22 17 15 21 23 6 5 11 7 6 7 12 12 11 21 31 30
17 16 21 21 18 22 12 12 2 6 2 4 4 7 12 8 8 7 13 20 9 5 9 14 18 10 15 11 16 25 16 7 6 3 4 16 7 9 4 7 15 14 26 31 31
16 18 23 23 16 16 19 3 8 6 5 4 3 6 8 7 7 12 6 14 18 12 1 8 10 15 19 17 10 24 8 4 5 8 5 8 7 4 6 9 22 26 30 31 30
16 20 24 26 25 20 16 5 6 4 5 6 6 6 7 10 9 15 18 9 10 20 8 3 8 6 12 10 11 7 12 20 8 8 6 5 3 4 8 6 10 20 28 31 31
19 26 25 23 32 26 4 8 6 7 5 3 9 11 10 12 8 11 10 10 18 16 14 3 7 2 9 16 14 8 7 9 4 7 7 6 8 5 9 8 7 13 22 28 30
17 8 7 22 34 15 5 6 6 11 9 8 7 6 13 9 11 10 7 12 14 16 14 6 4 4 6 9 12 7 3 11 4 2 4 5 2 9 9 11 11 11 26 30 31
16 3 17 24 6 3 4 4 6 4 20 13 7 14 14 14 11 11 13 11 20 13 11 9 3 4 1 6 14 12 4 5 1 2 1 3 2 6 8 7 10 14 27 32 30
13 6 20 26 5 4 2 4 7 5 10 8 8 14 12 8 7 13 12 10 21 13 15 11 6 2 4 4 4 9 9 4 8 3 3 3 3 6 7 7 6 16 27 30 29
9 4 6 15 6 3 6 5 6 15 16 9 10 16 14 8 10 5 7 4 16 17 14 11 4 2 2 5 8 7 8 6 8 2 2 2 7 6 7 8 7 19 25 30 31
10 4 8 4 6 8 10 4 5 6 15 18 6 16 12 9 10 6 11 3 10 13 11 3 3 10 20 13 17 16 16 15 10 8 1 4 6 9 10 11 12 20 26 29 29
10 4 9 4 10 15 15 7 9 6 6 6 10 8 15 10 8 11 12 10 6 8 12 10 5 15 9 8 12 11 13 14 11 7 8 9 7 4 8 20 20 22 25 26 29
13 8 1 3 8 6 6 9 9 12 12 20 18 12 10 13 11 6 18 17 11 13 14 5 5 5 3 3 5 1 12 13 11 10 8 12 8 3 6 8 14 23 25 24 25
Wind_Direction
295 296 298 299 297 288 280 275 267 263 249 244 232 240 247 257 264 267 261 251 247 255 275 262 281 245 237 243 240 241 243 238 233 244 260 260 160 261 199 278 280 282 287 135 354
286 286 290 293 296 299 293 281 271 263 254 246 244 241 249 257 266 258 265 251 248 262 270 268 265 247 231 228 228 227 223 242 245 245 256 263 202 242 302 283 289 286 272 226 270
278 279 286 290 285 285 294 294 288 273 264 253 246 242 240 257 286 276 272 264 253 253 248 264 265 278 260 229 222 228 232 248 242 258 271 260 306 301 285 276 276 279 314 313 324
271 268 278 289 281 287 291 290 289 281 266 258 251 244 235 213 241 179 244 252 244 235 241 253 250 248 247 236 232 233 233 232 257 268 264 239 271 276 272 281 286 293 298 293 293
274 265 270 281 277 289 296 300 292 281 265 251 244 234 211 208 233 244 311 62 8 226 218 232 242 242 248 256 235 249 250 250 242 256 269 266 235 260 269 272 277 282 280 270 264
276 264 262 264 267 278 287 291 288 275 268 257 243 228 207 235 239 241 262 256 295 261 229 232 242 247 270 248 255 265 247 259 265 249 242 264 263 255 257 266 266 270 275 277 266
273 264 257 256 261 270 284 285 282 274 263 256 246 236 232 230 231 234 241 243 250 256 263 238 247 258 256 264 285 251 261 240 244 253 253 237 249 242 257 265 260 261 267 266 243
267 268 256 254 258 263 275 277 275 276 267 259 251 236 248 255 228 228 234 244 247 246 242 245 249 255 260 310 315 287 258 247 238 252 244 241 254 260 265 254 245 243 245 218 242
268 267 266 246 257 259 269 276 262 264 262 260 256 225 263 269 224 233 218 219 223 239 234 231 254 256 259 255 281 240 237 231 244 236 241 227 247 250 252 264 244 239 262 196 181
277 256 264 258 245 254 262 281 274 253 243 239 237 240 249 237 233 229 221 223 233 234 239 219 223 222 209 206 219 228 224 248 226 230 239 251 239 232 264 250 224 231 253 185 170
275 253 253 260 236 248 259 279 277 255 204 196 205 212 125 288 221 212 212 211 222 237 225 205 211 216 212 209 233 248 253 240 239 227 223 237 238 243 234 250 250 254 238 173 162
264 256 249 250 234 240 248 237 214 222 266 228 234 236 249 295 233 217 192 196 203 218 213 231 221 223 228 234 236 245 252 258 260 241 217 238 228 228 235 243 229 229 235 177 150
255 254 243 232 229 232 242 249 263 260 257 211 227 234 230 230 237 219 199 202 203 216 214 215 238 232 238 238 237 238 241 246 240 255 231 237 257 248 249 233 234 226 242 180 161
243 243 224 211 230 238 246 267 264 269 265 208 214 241 223 198 253 223 218 204 224 226 218 235 236 237 231 238 232 239 227 249 255 256 197 193 259 221 234 226 228 220 196 154 154
237 231 211 209 193 184 219 293 255 187 278 126 164 210 225 183 54 220 204 219 223 220 204 220 212 222 235 231 238 252 219 236 251 230 172 241 217 244 266 209 206 188 201 155 158
230 229 203 209 209 220 236 190 139 128 251 159 137 178 178 192 213 315 193 213 222 238 243 241 237 241 234 225 229 271 217 251 265 198 227 192 191 251 237 178 172 178 163 152 155
225 224 207 206 211 222 210 155 148 232 69 180 182 180 213 204 214 201 200 209 207 206 225 232 243 241 236 264 235 234 204 215 196 197 228 184 202 253 58 83 172 161 146 152 157
224 224 220 208 198 203 178 123 230 217 191 118 173 202 211 196 215 205 224 206 212 228 297 223 249 200 210 210 242 213 191 230 187 164 166 130 204 193 132 112 128 144 149 155 160
220 224 212 210 199 190 157 205 229 211 173 172 157 205 202 211 243 195 220 198 210 216 205 239 230 172 216 183 232 157 221 231 270 166 126 175 160 56 115 79 130 142 151 160 166
209 211 212 224 193 192 195 224 221 211 144 179 210 207 201 197 198 193 196 234 231 204 197 189 288 170 224 174 237 239 164 232 244 165 154 177 177 167 161 154 162 150 159 164 169
211 195 211 224 183 178 221 216 220 227 165 203 226 250 241 186 191 196 222 252 202 201 153 175 198 270 247 182 186 206 203 231 226 99 156 135 86 147 153 157 171 168 165 167 173
191 165 178 177 179 187 211 201 207 244 194 224 241 256 272 193 192 217 234 248 167 148 173 178 278 250 315 290 191 175 254 291 308 67 283 143 117 79 100 115 155 175 165 170 174
167 149 183 187 206 197 174 233 225 215 203 203 230 222 258 192 200 196 231 227 163 150 163 165 222 210 115 36 116 182 242 288 310 344 204 63 165 109 110 110 148 152 157 166 170
163 164 163 196 227 191 198 226 228 223 236 228 248 253 253 220 201 174 235 276 162 176 114 184 194 266 281 178 151 168 198 242 245 334 347 24 126 136 135 137 140 153 162 165 168
175 199 176 176 220 223 173 233 210 231 210 202 237 245 250 234 195 205 215 208 169 211 154 269 277 244 253 154 160 161 182 215 218 216 215 257 163 176 169 162 161 162 159 163 172
151 190 173 183 203 210 221 201 214 235 219 205 229 244 227 227 195 198 203 182 180 196 193 215 290 306 91 144 156 179 194 205 223 213 239 276 301 139 118 144 142 166 170 172 178
181 195 137 257 201 196 194 193 224 229 250 254 212 235 264 223 273 207 195 183 192 180 189 220 246 308 60 126 102 325 205 212 213 218 216 225 238 253 119 130 152 169 179 179 180